Portada
METAR-TAF:

METAR-TAF

Aeroports :

Carnarvon, Austràlia

latitud: 24-52-50S, longitud: 113-40-20E, altitud: 4 m

Observació

L'informe es va fer fa 1 hora i 2 minuts, a les 19:00 UTC
Vent 5 kt del Nord
Temperatura 18°C
Humitat 94%
Pressió 1012 hPa
Visibilitat 10 km o més

METAR: YCAR 131900Z AUTO 36005KT 9999 // NCD 18/17 Q1012

Hora: 04:02 (20:02 UTC)


TAF: manca

Observacions i pronòstics meteorològics de més de 4000 aeroports (METAR i TAF).

Les estacions disponibles són els punts grocs i vermells al mapa.

Posi el ratolí al punt desitjat per veure el nom de l'estació.

Feu clic per veure les observacions i els pronòstics meteorològics.

Per canviar el mapa: feu clic els botons verds amb una creu de color negre per apropar; al botó verd amb un guió per allunyar la imatge; o en les fletxes verdes per a mapes adjacents.


METAR-TAF: